Location: ?????????
(41.1143°N, 22.7905°E)
Time: 00:39:49
(UTC+00:00)

GEOS 3 Rocket - Pass Details

Date: 13 December 2025
Orbit: 769 x 845 km, 115.0° (Epoch: 19 January)

Event Time Altitude Azimuth Distance (km) Brightness Sun altitude
Exits shadow 15:38:09 - 36° (NE) 2,968 6.0 -7.1°
Reaches altitude 10° 15:39:24 10° 37° (NE) 2,468 5.6 -7.3°
Maximum altitude 15:44:48 84° 125° (SE) 854 3.7 -8.2°
Drops below altitude 10° 15:50:10 10° 214° (SW) 2,451 7.1 -9.2°
Sets 15:52:28 0° 215° (SW) 3,377 7.9 -9.6°
